Location: Bruderhein
(53.8035°N, 112.9265°W)
Time: 01:18:46
(UTC+00:00)

STRAND 1 - Pass Details

Date: 02 April 2023
Orbit: 767 x 779 km, 98.4° (Epoch: 31 May)

Event Time Altitude Azimuth Distance (km) Brightness Sun altitude
Rises 02:53:14 0° 14° (NNE) 3,255 ? -7.4°
Reaches altitude 10° 02:55:34 10° 12° (NNE) 2,323 ? -7.7°
Maximum altitude 03:00:39 73° 289° (WNW) 808 ? -8.4°
Drops below altitude 10° 03:05:43 10° 206° (SSW) 2,305 ? -9.1°
Sets 03:08:01 0° 204° (SSW) 3,228 ? -9.4°
